Flag for Australia Weather past 2 weeks in Wagga Wagga, New South Wales, Australia

Now
54 °F

Passing clouds.


Feels Like: 53 °F
Forecast: 44 / 55 °F
Wind: 5 mph from Northwest

Location: Wagga Airport

Current Time: Jul 31, 2015 at 5:30:23 PM

Latest Report: Jul 31, 2015 at 5:00 PM


Visibility: N/A

Pressure: 30.09 "Hg

Humidity: 63%

Dew point: 41 °F

Location of Wagga WaggaLocation

Historic Weather in Wagga Wagga — Graph

°F

Wagga Wagga temperature yesterday

Maximum temperature yesterday: 55 °F (at 1:00 PM)
Minimum temperature yesterday: 37 °F (at 4:00 AM)
Average temperature yesterday: 46 °F

Past Weeks' High & Low Weather Summary

 TemperatureHumidityPressure
High61 °F (Jul 21, 3:00 PM)100% (Jul 18, 1:00 AM)30.57 "Hg (Jul 18, 1:00 AM)
Low32 °F (Jul 27, 7:00 AM)42% (Jul 23, 3:00 PM)29.92 "Hg (Jul 24, 3:00 PM)
Average46 °F80%30.26 "Hg
* Reported Jul 16 4:00 PM — Jul 31 4:00 PM, Wagga Wagga, Weather by CustomWeather, © 2015

Note: Actual official high and low records may vary slightly from our data, if they occured in-between our weather recording intervals... More about our weather records

Advertising

Wagga Wagga weather history for previous 24 hours

 ConditionsComfort  
Time TempWeatherWind HumidityBarometerVisibility
4:00 PM
Fri, Jul 31
55 °FPassing clouds.6 mph63%30.09 "HgN/A
3:00 PM54 °FScattered clouds.9 mph63%30.12 "HgN/A
2:00 PM55 °FScattered clouds.10 mph59%30.12 "HgN/A
1:00 PM55 °FPassing clouds.9 mph55%30.12 "HgN/A
12:00 PM55 °FPassing clouds.7 mph63%30.15 "HgN/A
11:00 AM54 °FPassing clouds.6 mph67%30.15 "HgN/A
10:00 AM50 °FPassing clouds.5 mph71%30.15 "HgN/A
9:00 AM46 °FSunny.6 mph82%30.15 "Hg10 mi
8:00 AM45 °FSunny.5 mph87%30.12 "Hg10 mi
7:00 AM39 °FScattered clouds.5 mph100%30.12 "HgN/A
6:00 AM39 °FPassing clouds.No wind100%30.09 "HgN/A
5:00 AM43 °FClear.3 mph93%30.07 "HgN/A
4:00 AM46 °FOvercast.No wind87%30.07 "HgN/A
3:00 AM46 °FOvercast.No wind87%30.07 "HgN/A
2:00 AM46 °FPassing clouds.3 mph87%30.09 "HgN/A
1:00 AM46 °FOvercast.6 mph93%30.09 "HgN/A
12:00 AM46 °FMostly cloudy.No wind87%30.12 "HgN/A
11:00 PM
Thu, Jul 30
46 °FOvercast.6 mph87%30.12 "HgN/A
10:00 PM46 °FPassing clouds.No wind93%30.12 "HgN/A
9:00 PM48 °FSprinkles. Overcast.2 mph82%30.12 "HgN/A
8:00 PM50 °FScattered showers. Clear.7 mph71%30.12 "HgN/A
7:00 PM50 °FPartly cloudy.7 mph71%30.09 "HgN/A
6:00 PM52 °FPassing clouds.6 mph67%30.12 "HgN/A
5:00 PM52 °FPartly cloudy.9 mph62%30.12 "HgN/A
Weather by CustomWeather, © 2015

See weather overviewHow to use our weather pages